contact:dominique.lefevre@mio.osupytheas.fr, maurice.libes@osupytheas.fr, didier.mallarino@osupytheas.fr
Project:EMSO http://www.emso-fr.org/EMSO-France
Depth: 2436.0 m
Title:EMSO Ligure Ouest : Data MII capteur CSTAR
DateTime,Latitude,Longitude,Instrument_Serial,Reference_Counts,Signal_Counts,Corrected_Signal_raw_counts,Calculated_Beam_c_inverse_meters,Internal_thermistor_counts
DateTime,Latitude,Longitude,Instrument_Serial,Reference_Counts,Signal_Counts,Corrected_Signal_raw_counts,Calculated_Beam_c_inverse_meters,Internal_thermistor_counts
2019-11-23T00:02:54,42.805,6.029,CST-1368DR,7308,10242,15307,0.080,551
2019-11-23T00:05:56,42.805,6.029,CST-1368DR,7308,10242,15306,0.080,551
2019-11-23T00:08:57,42.805,6.029,CST-1368DR,7308,10242,15306,0.080,551
2019-11-23T00:11:59,42.805,6.029,CST-1368DR,7308,10240,15304,0.081,551
2019-11-23T00:15:01,42.805,6.029,CST-1368DR,7308,10241,15306,0.080,551
2019-11-23T00:18:02,42.805,6.029,CST-1368DR,7308,10242,15307,0.080,551
2019-11-23T00:21:04,42.805,6.029,CST-1368DR,7308,10241,15305,0.080,551
2019-11-23T00:24:06,42.805,6.029,CST-1368DR,7308,10241,15306,0.080,551
2019-11-23T00:27:07,42.805,6.029,CST-1368DR,7308,10241,15306,0.080,551
2019-11-23T00:30:09,42.805,6.029,CST-1368DR,7308,10242,15306,0.080,551
2019-11-23T00:33:11,42.805,6.029,CST-1368DR,7308,10242,15306,0.080,551
2019-11-23T00:36:12,42.805,6.029,CST-1368DR,7308,10241,15306,0.080,551
2019-11-23T00:39:14,42.805,6.029,CST-1368DR,7308,10242,15306,0.080,551
2019-11-23T00:42:15,42.805,6.029,CST-1368DR,7308,10242,15306,0.080,551
2019-11-23T00:45:17,42.805,6.029,CST-1368DR,7308,10241,15305,0.080,551
2019-11-23T00:48:19,42.805,6.029,CST-1368DR,7308,10242,15307,0.080,551
2019-11-23T00:51:21,42.805,6.029,CST-1368DR,7308,10242,15308,0.080,551
2019-11-23T00:54:22,42.805,6.029,CST-1368DR,7308,10242,15307,0.080,551
2019-11-23T00:57:24,42.805,6.029,CST-1368DR,7308,10242,15308,0.080,551
2019-11-23T01:00:25,42.805,6.029,CST-1368DR,7308,10241,15306,0.080,550
2019-11-23T01:03:27,42.805,6.029,CST-1368DR,7308,10241,15306,0.080,551
2019-11-23T01:06:29,42.805,6.029,CST-1368DR,7308,10241,15306,0.080,551
2019-11-23T01:09:30,42.805,6.029,CST-1368DR,7308,10242,15307,0.080,550
2019-11-23T01:12:32,42.805,6.029,CST-1368DR,7308,10242,15308,0.080,551
2019-11-23T01:15:34,42.805,6.029,CST-1368DR,7308,10242,15306,0.080,551
2019-11-23T01:18:35,42.805,6.029,CST-1368DR,7308,10241,15306,0.080,551
2019-11-23T01:21:37,42.805,6.029,CST-1368DR,7307,10242,15309,0.079,551
2019-11-23T01:24:39,42.805,6.029,CST-1368DR,7308,10241,15305,0.080,551
2019-11-23T01:27:40,42.805,6.029,CST-1368DR,7308,10241,15306,0.080,551
2019-11-23T01:30:42,42.805,6.029,CST-1368DR,7307,10241,15308,0.080,551
2019-11-23T01:33:43,42.805,6.029,CST-1368DR,7307,10242,15310,0.079,551
2019-11-23T01:36:45,42.805,6.029,CST-1368DR,7307,10241,15308,0.080,551
2019-11-23T01:39:47,42.805,6.029,CST-1368DR,7307,10242,15309,0.079,551
2019-11-23T01:42:48,42.805,6.029,CST-1368DR,7307,10242,15309,0.079,551
2019-11-23T01:45:50,42.805,6.029,CST-1368DR,7307,10242,15309,0.079,551
2019-11-23T01:48:52,42.805,6.029,CST-1368DR,7307,10242,15309,0.079,551
2019-11-23T01:51:53,42.805,6.029,CST-1368DR,7307,10241,15308,0.080,551
2019-11-23T01:54:55,42.805,6.029,CST-1368DR,7307,10241,15308,0.080,551
2019-11-23T01:57:56,42.805,6.029,CST-1368DR,7307,10242,15308,0.080,551
2019-11-23T02:00:58,42.805,6.029,CST-1368DR,7307,10242,15308,0.080,551
2019-11-23T02:04:00,42.805,6.029,CST-1368DR,7307,10242,15309,0.079,550
2019-11-23T02:07:01,42.805,6.029,CST-1368DR,7307,10242,15309,0.079,551
2019-11-23T02:10:03,42.805,6.029,CST-1368DR,7307,10242,15308,0.080,551
2019-11-23T02:13:05,42.805,6.029,CST-1368DR,7307,10242,15309,0.079,551
2019-11-23T02:16:06,42.805,6.029,CST-1368DR,7307,10241,15308,0.080,551
2019-11-23T02:19:08,42.805,6.029,CST-1368DR,7307,10241,15307,0.080,550
2019-11-23T02:22:10,42.805,6.029,CST-1368DR,7307,10241,15307,0.080,551
2019-11-23T02:25:11,42.805,6.029,CST-1368DR,7307,10241,15308,0.080,551
2019-11-23T02:28:13,42.805,6.029,CST-1368DR,7307,10241,15308,0.080,551
2019-11-23T02:31:14,42.805,6.029,CST-1368DR,7307,10241,15308,0.080,551
2019-11-23T02:34:16,42.805,6.029,CST-1368DR,7307,10241,15308,0.080,551
2019-11-23T02:37:18,42.805,6.029,CST-1368DR,7307,10242,15308,0.080,551
2019-11-23T02:40:19,42.805,6.029,CST-1368DR,7307,10241,15308,0.080,551
2019-11-23T02:43:21,42.805,6.029,CST-1368DR,7307,10241,15307,0.080,551
2019-11-23T02:46:23,42.805,6.029,CST-1368DR,7307,10240,15307,0.080,551
2019-11-23T02:49:24,42.805,6.029,CST-1368DR,7307,10241,15307,0.080,551
2019-11-23T02:52:26,42.805,6.029,CST-1368DR,7307,10241,15307,0.080,551
2019-11-23T02:55:28,42.805,6.029,CST-1368DR,7307,10240,15306,0.080,551
2019-11-23T02:58:29,42.805,6.029,CST-1368DR,7307,10240,15306,0.080,551
2019-11-23T03:01:31,42.805,6.029,CST-1368DR,7307,10241,15307,0.080,551
2019-11-23T03:04:33,42.805,6.029,CST-1368DR,7307,10240,15305,0.080,551
2019-11-23T03:07:34,42.805,6.029,CST-1368DR,7307,10241,15308,0.080,551
2019-11-23T03:10:36,42.805,6.029,CST-1368DR,7307,10241,15308,0.080,551
2019-11-23T03:13:37,42.805,6.029,CST-1368DR,7307,10240,15305,0.080,551
2019-11-23T03:16:39,42.805,6.029,CST-1368DR,7307,10240,15307,0.080,551
2019-11-23T03:19:41,42.805,6.029,CST-1368DR,7307,10240,15307,0.080,551
2019-11-23T03:22:42,42.805,6.029,CST-1368DR,7307,10241,15307,0.080,551
2019-11-23T03:25:44,42.805,6.029,CST-1368DR,7307,10242,15308,0.080,551
2019-11-23T03:28:46,42.805,6.029,CST-1368DR,7307,10241,15308,0.080,551
2019-11-23T03:31:47,42.805,6.029,CST-1368DR,7307,10241,15307,0.080,551
2019-11-23T03:34:49,42.805,6.029,CST-1368DR,7307,10242,15308,0.080,551
2019-11-23T03:37:51,42.805,6.029,CST-1368DR,7307,10239,15305,0.080,551
2019-11-23T03:40:52,42.805,6.029,CST-1368DR,7307,10239,15304,0.081,551
2019-11-23T03:43:54,42.805,6.029,CST-1368DR,7307,10240,15306,0.080,551
2019-11-23T03:46:56,42.805,6.029,CST-1368DR,7307,10241,15307,0.080,551
2019-11-23T03:49:57,42.805,6.029,CST-1368DR,7307,10240,15307,0.080,551
2019-11-23T03:52:59,42.805,6.029,CST-1368DR,7307,10241,15307,0.080,551
2019-11-23T03:56:00,42.805,6.029,CST-1368DR,7307,10240,15306,0.080,551
2019-11-23T03:59:02,42.805,6.029,CST-1368DR,7307,10240,15305,0.080,551
2019-11-23T04:02:04,42.805,6.029,CST-1368DR,7307,10240,15306,0.080,551
2019-11-23T04:05:05,42.805,6.029,CST-1368DR,7307,10240,15307,0.080,551
2019-11-23T04:08:07,42.805,6.029,CST-1368DR,7307,10240,15306,0.080,551
2019-11-23T04:11:09,42.805,6.029,CST-1368DR,7307,10240,15306,0.080,550
2019-11-23T04:14:10,42.805,6.029,CST-1368DR,7307,10240,15307,0.080,551
2019-11-23T04:17:12,42.805,6.029,CST-1368DR,7307,10240,15306,0.080,551
2019-11-23T04:20:14,42.805,6.029,CST-1368DR,7307,10240,15306,0.080,551
2019-11-23T04:23:15,42.805,6.029,CST-1368DR,7307,10241,15307,0.080,551
2019-11-23T04:26:17,42.805,6.029,CST-1368DR,7307,10240,15306,0.080,551
2019-11-23T04:29:19,42.805,6.029,CST-1368DR,7307,10240,15306,0.080,551
2019-11-23T04:32:20,42.805,6.029,CST-1368DR,7307,10240,15305,0.080,551
2019-11-23T04:35:22,42.805,6.029,CST-1368DR,7307,10240,15307,0.080,551
2019-11-23T04:38:24,42.805,6.029,CST-1368DR,7307,10240,15307,0.080,551
2019-11-23T04:41:25,42.805,6.029,CST-1368DR,7307,10240,15306,0.080,551
2019-11-23T04:44:27,42.805,6.029,CST-1368DR,7307,10238,15303,0.081,551
2019-11-23T04:47:29,42.805,6.029,CST-1368DR,7307,10240,15305,0.080,551
2019-11-23T04:50:30,42.805,6.029,CST-1368DR,7306,10240,15307,0.080,551
2019-11-23T04:53:32,42.805,6.029,CST-1368DR,7306,10240,15308,0.080,551
2019-11-23T04:56:33,42.805,6.029,CST-1368DR,7307,10234,15298,0.082,551
2019-11-23T04:59:35,42.805,6.029,CST-1368DR,7306,10240,15308,0.080,551
2019-11-23T05:02:37,42.805,6.029,CST-1368DR,7307,10240,15305,0.080,551
2019-11-23T05:05:38,42.805,6.029,CST-1368DR,7307,10240,15307,0.080,551
2019-11-23T05:08:40,42.805,6.029,CST-1368DR,7306,10240,15307,0.080,551
2019-11-23T05:11:42,42.805,6.029,CST-1368DR,7306,10240,15308,0.080,551
2019-11-23T05:14:43,42.805,6.029,CST-1368DR,7307,10240,15307,0.080,551
2019-11-23T05:17:45,42.805,6.029,CST-1368DR,7307,10240,15306,0.080,551
2019-11-23T05:20:46,42.805,6.029,CST-1368DR,7306,10240,15307,0.080,551
2019-11-23T05:23:48,42.805,6.029,CST-1368DR,7306,10240,15307,0.080,551
2019-11-23T05:26:50,42.805,6.029,CST-1368DR,7306,10240,15308,0.080,551
2019-11-23T05:29:51,42.805,6.029,CST-1368DR,7306,10238,15305,0.080,551
2019-11-23T05:32:53,42.805,6.029,CST-1368DR,7306,10239,15306,0.080,551
2019-11-23T05:35:55,42.805,6.029,CST-1368DR,7306,10240,15307,0.080,551
2019-11-23T05:38:56,42.805,6.029,CST-1368DR,7306,10240,15308,0.080,550
2019-11-23T05:41:58,42.805,6.029,CST-1368DR,7306,10240,15308,0.080,551
2019-11-23T05:45:00,42.805,6.029,CST-1368DR,7306,10240,15308,0.080,551
2019-11-23T05:48:01,42.805,6.029,CST-1368DR,7306,10240,15308,0.080,551
2019-11-23T05:51:03,42.805,6.029,CST-1368DR,7306,10240,15308,0.080,551
2019-11-23T05:54:04,42.805,6.029,CST-1368DR,7306,10239,15307,0.080,551
2019-11-23T05:57:06,42.805,6.029,CST-1368DR,7306,10239,15306,0.080,551
2019-11-23T06:00:08,42.805,6.029,CST-1368DR,7306,10239,15307,0.080,551
2019-11-23T06:03:09,42.805,6.029,CST-1368DR,7306,10240,15308,0.080,551
2019-11-23T06:06:11,42.805,6.029,CST-1368DR,7306,10240,15308,0.080,551
2019-11-23T06:09:13,42.805,6.029,CST-1368DR,7306,10239,15307,0.080,551
2019-11-23T06:12:14,42.805,6.029,CST-1368DR,7306,10239,15306,0.080,551
2019-11-23T06:15:16,42.805,6.029,CST-1368DR,7306,10239,15307,0.080,551
2019-11-23T06:18:17,42.805,6.029,CST-1368DR,7306,10240,15308,0.080,551
2019-11-23T06:21:19,42.805,6.029,CST-1368DR,7306,10238,15305,0.080,551
2019-11-23T06:24:21,42.805,6.029,CST-1368DR,7306,10240,15307,0.080,551
2019-11-23T06:27:22,42.805,6.029,CST-1368DR,7306,10240,15308,0.080,551
2019-11-23T06:30:24,42.805,6.029,CST-1368DR,7306,10237,15304,0.081,551
2019-11-23T06:33:26,42.805,6.029,CST-1368DR,7306,10239,15306,0.080,551
2019-11-23T06:36:27,42.805,6.029,CST-1368DR,7306,10240,15307,0.080,551
2019-11-23T06:39:29,42.805,6.029,CST-1368DR,7306,10240,15307,0.080,551
2019-11-23T06:42:31,42.805,6.029,CST-1368DR,7306,10239,15307,0.080,551
2019-11-23T06:45:32,42.805,6.029,CST-1368DR,7306,10239,15306,0.080,551
2019-11-23T06:48:34,42.805,6.029,CST-1368DR,7306,10239,15306,0.080,551
2019-11-23T06:51:35,42.805,6.029,CST-1368DR,7306,10239,15306,0.080,550
2019-11-23T06:54:37,42.805,6.029,CST-1368DR,7306,10239,15306,0.080,551
2019-11-23T06:57:39,42.805,6.029,CST-1368DR,7306,10237,15303,0.081,551
2019-11-23T07:00:40,42.805,6.029,CST-1368DR,7306,10238,15305,0.080,551
2019-11-23T07:03:42,42.805,6.029,CST-1368DR,7306,10239,15306,0.080,551
2019-11-23T07:06:44,42.805,6.029,CST-1368DR,7306,10239,15306,0.080,551
2019-11-23T07:09:45,42.805,6.029,CST-1368DR,7306,10237,15304,0.081,551
2019-11-23T07:12:47,42.805,6.029,CST-1368DR,7306,10237,15304,0.081,551
2019-11-23T07:15:48,42.805,6.029,CST-1368DR,7306,10238,15305,0.080,551
2019-11-23T07:18:50,42.805,6.029,CST-1368DR,7306,10238,15305,0.080,551
2019-11-23T07:21:52,42.805,6.029,CST-1368DR,7306,10239,15306,0.080,551
2019-11-23T07:24:54,42.805,6.029,CST-1368DR,7306,10239,15306,0.080,551
2019-11-23T07:27:55,42.805,6.029,CST-1368DR,7306,10239,15306,0.080,551
2019-11-23T07:30:57,42.805,6.029,CST-1368DR,7306,10238,15305,0.080,550
2019-11-23T07:33:58,42.805,6.029,CST-1368DR,7306,10238,15305,0.080,551
2019-11-23T07:37:00,42.805,6.029,CST-1368DR,7306,10239,15306,0.080,551
2019-11-23T07:40:02,42.805,6.029,CST-1368DR,7306,10239,15307,0.080,551
2019-11-23T07:43:03,42.805,6.029,CST-1368DR,7306,10239,15306,0.080,551
2019-11-23T07:46:05,42.805,6.029,CST-1368DR,7306,10238,15305,0.080,551
2019-11-23T07:49:07,42.805,6.029,CST-1368DR,7306,10238,15305,0.080,551
2019-11-23T07:52:08,42.805,6.029,CST-1368DR,7306,10237,15303,0.081,551
2019-11-23T07:55:10,42.805,6.029,CST-1368DR,7306,10238,15305,0.080,551
2019-11-23T07:58:12,42.805,6.029,CST-1368DR,7306,10237,15304,0.081,551
2019-11-23T08:01:13,42.805,6.029,CST-1368DR,7306,10237,15304,0.081,551
2019-11-23T08:04:15,42.805,6.029,CST-1368DR,7306,10238,15305,0.080,551
2019-11-23T08:07:17,42.805,6.029,CST-1368DR,7306,10238,15305,0.080,551
2019-11-23T08:10:18,42.805,6.029,CST-1368DR,7306,10238,15305,0.080,551
2019-11-23T08:13:20,42.805,6.029,CST-1368DR,7306,10238,15305,0.080,551
2019-11-23T08:16:21,42.805,6.029,CST-1368DR,7306,10237,15303,0.081,551
2019-11-23T08:19:23,42.805,6.029,CST-1368DR,7306,10239,15306,0.080,551
2019-11-23T08:22:25,42.805,6.029,CST-1368DR,7306,10239,15306,0.080,551
2019-11-23T08:25:27,42.805,6.029,CST-1368DR,7306,10238,15305,0.080,551
2019-11-23T08:28:28,42.805,6.029,CST-1368DR,7306,10237,15303,0.081,551
2019-11-23T08:31:30,42.805,6.029,CST-1368DR,7306,10238,15305,0.080,551
2019-11-23T08:34:32,42.805,6.029,CST-1368DR,7306,10238,15304,0.081,551
2019-11-23T08:37:33,42.805,6.029,CST-1368DR,7306,10238,15305,0.080,551
2019-11-23T08:40:35,42.805,6.029,CST-1368DR,7305,10238,15307,0.080,551
2019-11-23T08:43:36,42.805,6.029,CST-1368DR,7305,10237,15306,0.080,551
2019-11-23T08:46:38,42.805,6.029,CST-1368DR,7305,10238,15306,0.080,551
2019-11-23T08:49:40,42.805,6.029,CST-1368DR,7305,10237,15306,0.080,551
2019-11-23T08:52:41,42.805,6.029,CST-1368DR,7305,10238,15307,0.080,551
2019-11-23T08:55:43,42.805,6.029,CST-1368DR,7305,10237,15306,0.080,550
2019-11-23T08:58:45,42.805,6.029,CST-1368DR,7305,10238,15307,0.080,551
2019-11-23T09:01:46,42.805,6.029,CST-1368DR,7305,10237,15306,0.080,551
2019-11-23T09:04:48,42.805,6.029,CST-1368DR,7305,10238,15307,0.080,551
2019-11-23T09:07:49,42.805,6.029,CST-1368DR,7305,10238,15307,0.080,551
2019-11-23T09:10:51,42.805,6.029,CST-1368DR,7305,10238,15306,0.080,550
2019-11-23T09:13:53,42.805,6.029,CST-1368DR,7305,10238,15306,0.080,551
2019-11-23T09:16:54,42.805,6.029,CST-1368DR,7305,10237,15306,0.080,551
2019-11-23T09:19:56,42.805,6.029,CST-1368DR,7305,10237,15306,0.080,551
2019-11-23T09:22:58,42.805,6.029,CST-1368DR,7305,10236,15304,0.081,550
2019-11-23T09:25:59,42.805,6.029,CST-1368DR,7305,10237,15306,0.080,551
2019-11-23T09:29:01,42.805,6.029,CST-1368DR,7305,10237,15306,0.080,551
2019-11-23T09:32:03,42.805,6.029,CST-1368DR,7305,10237,15305,0.080,551
2019-11-23T09:35:04,42.805,6.029,CST-1368DR,7305,10236,15304,0.081,551
2019-11-23T09:38:06,42.805,6.029,CST-1368DR,7305,10236,15304,0.081,551
2019-11-23T09:41:07,42.805,6.029,CST-1368DR,7305,10237,15306,0.080,551
2019-11-23T09:44:09,42.805,6.029,CST-1368DR,7305,10236,15303,0.081,551
2019-11-23T09:47:11,42.805,6.029,CST-1368DR,7305,10237,15306,0.080,551
2019-11-23T09:50:12,42.805,6.029,CST-1368DR,7305,10236,15303,0.081,550
2019-11-23T09:53:14,42.805,6.029,CST-1368DR,7305,10236,15304,0.081,551
2019-11-23T09:56:16,42.805,6.029,CST-1368DR,7305,10237,15305,0.080,551
2019-11-23T09:59:17,42.805,6.029,CST-1368DR,7305,10237,15305,0.080,551
2019-11-23T10:02:19,42.805,6.029,CST-1368DR,7305,10237,15305,0.080,551
2019-11-23T10:05:20,42.805,6.029,CST-1368DR,7305,10237,15306,0.080,551
2019-11-23T10:08:22,42.805,6.029,CST-1368DR,7305,10236,15304,0.081,551
2019-11-23T10:11:24,42.805,6.029,CST-1368DR,7305,10235,15302,0.081,551
2019-11-23T10:14:26,42.805,6.029,CST-1368DR,7305,10237,15306,0.080,551
2019-11-23T10:17:27,42.805,6.029,CST-1368DR,7305,10237,15305,0.080,551
2019-11-23T10:20:29,42.805,6.029,CST-1368DR,7305,10235,15302,0.081,551
2019-11-23T10:23:30,42.805,6.029,CST-1368DR,7305,10235,15303,0.081,551
2019-11-23T10:26:32,42.805,6.029,CST-1368DR,7305,10236,15303,0.081,551
2019-11-23T10:29:34,42.805,6.029,CST-1368DR,7305,10237,15306,0.080,551
2019-11-23T10:32:35,42.805,6.029,CST-1368DR,7305,10237,15305,0.080,551
2019-11-23T10:35:37,42.805,6.029,CST-1368DR,7305,10237,15306,0.080,551
2019-11-23T10:38:39,42.805,6.029,CST-1368DR,7305,10236,15304,0.081,550
2019-11-23T10:41:40,42.805,6.029,CST-1368DR,7305,10236,15304,0.081,551
2019-11-23T10:44:42,42.805,6.029,CST-1368DR,7305,10236,15303,0.081,551
2019-11-23T10:47:43,42.805,6.029,CST-1368DR,7305,10236,15303,0.081,551
2019-11-23T10:50:45,42.805,6.029,CST-1368DR,7305,10236,15304,0.081,551
2019-11-23T10:53:47,42.805,6.029,CST-1368DR,7305,10235,15303,0.081,551
2019-11-23T10:56:48,42.805,6.029,CST-1368DR,7305,10236,15303,0.081,551
2019-11-23T10:59:50,42.805,6.029,CST-1368DR,7305,10235,15303,0.081,551
2019-11-23T11:02:52,42.805,6.029,CST-1368DR,7305,10232,15298,0.082,551
2019-11-23T11:05:53,42.805,6.029,CST-1368DR,7305,10235,15303,0.081,551
2019-11-23T11:08:55,42.805,6.029,CST-1368DR,7305,10237,15305,0.080,551
2019-11-23T11:11:56,42.805,6.029,CST-1368DR,7305,10233,15300,0.082,551
2019-11-23T11:14:58,42.805,6.029,CST-1368DR,7305,10236,15303,0.081,551
2019-11-23T11:18:00,42.805,6.029,CST-1368DR,7305,10235,15303,0.081,551
2019-11-23T11:21:01,42.805,6.029,CST-1368DR,7305,10237,15305,0.080,551
2019-11-23T11:24:03,42.805,6.029,CST-1368DR,7305,10235,15303,0.081,551
2019-11-23T11:27:05,42.805,6.029,CST-1368DR,7305,10236,15303,0.081,551
2019-11-23T11:30:06,42.805,6.029,CST-1368DR,7305,10235,15302,0.081,551
2019-11-23T11:33:08,42.805,6.029,CST-1368DR,7305,10236,15304,0.081,551
2019-11-23T11:36:10,42.805,6.029,CST-1368DR,7305,10236,15304,0.081,551
2019-11-23T11:39:11,42.805,6.029,CST-1368DR,7304,10236,15306,0.080,551
2019-11-23T11:42:13,42.805,6.029,CST-1368DR,7305,10236,15304,0.081,551
2019-11-23T11:45:15,42.805,6.029,CST-1368DR,7305,10235,15303,0.081,551
2019-11-23T11:48:16,42.805,6.029,CST-1368DR,7304,10235,15305,0.080,551
2019-11-23T11:51:18,42.805,6.029,CST-1368DR,7304,10236,15305,0.080,551
2019-11-23T11:54:20,42.805,6.029,CST-1368DR,7305,10235,15302,0.081,551
2019-11-23T11:57:21,42.805,6.029,CST-1368DR,7304,10236,15306,0.080,550
2019-11-23T12:00:23,42.805,6.029,CST-1368DR,7304,10235,15305,0.080,551
2019-11-23T12:03:24,42.805,6.029,CST-1368DR,7304,10236,15305,0.080,551
2019-11-23T12:06:26,42.805,6.029,CST-1368DR,7304,10235,15305,0.080,551
2019-11-23T12:09:28,42.805,6.029,CST-1368DR,7304,10233,15301,0.082,551
2019-11-23T12:12:29,42.805,6.029,CST-1368DR,7304,10235,15304,0.081,551
2019-11-23T12:15:31,42.805,6.029,CST-1368DR,7304,10235,15304,0.081,551
2019-11-23T12:18:33,42.805,6.029,CST-1368DR,7304,10235,15304,0.081,551
2019-11-23T12:21:34,42.805,6.029,CST-1368DR,7304,10235,15304,0.081,551
2019-11-23T12:24:36,42.805,6.029,CST-1368DR,7304,10235,15305,0.080,551
2019-11-23T12:27:38,42.805,6.029,CST-1368DR,7304,10235,15304,0.081,551
2019-11-23T12:30:39,42.805,6.029,CST-1368DR,7304,10234,15303,0.081,551
2019-11-23T12:33:41,42.805,6.029,CST-1368DR,7304,10236,15305,0.080,551
2019-11-23T12:36:42,42.805,6.029,CST-1368DR,7304,10235,15304,0.081,551
2019-11-23T12:39:44,42.805,6.029,CST-1368DR,7304,10236,15305,0.080,550
2019-11-23T12:42:46,42.805,6.029,CST-1368DR,7304,10235,15304,0.081,551
2019-11-23T12:45:47,42.805,6.029,CST-1368DR,7304,10235,15304,0.081,551
2019-11-23T12:48:49,42.805,6.029,CST-1368DR,7304,10235,15304,0.081,550
2019-11-23T12:51:51,42.805,6.029,CST-1368DR,7304,10235,15304,0.081,551
2019-11-23T12:54:52,42.805,6.029,CST-1368DR,7304,10235,15305,0.080,551
2019-11-23T12:57:54,42.805,6.029,CST-1368DR,7304,10235,15304,0.081,551
2019-11-23T13:00:55,42.805,6.029,CST-1368DR,7304,10235,15304,0.081,551
2019-11-23T13:03:57,42.805,6.029,CST-1368DR,7304,10234,15303,0.081,551
2019-11-23T13:06:59,42.805,6.029,CST-1368DR,7304,10234,15303,0.081,551
2019-11-23T13:10:00,42.805,6.029,CST-1368DR,7304,10233,15302,0.081,551
2019-11-23T13:13:02,42.805,6.029,CST-1368DR,7304,10235,15305,0.080,551
2019-11-23T13:16:04,42.805,6.029,CST-1368DR,7304,10235,15305,0.080,550
2019-11-23T13:19:05,42.805,6.029,CST-1368DR,7304,10235,15305,0.080,551
2019-11-23T13:22:07,42.805,6.029,CST-1368DR,7304,10235,15305,0.080,551
2019-11-23T13:25:09,42.805,6.029,CST-1368DR,7304,10233,15302,0.081,551
2019-11-23T13:28:11,42.805,6.029,CST-1368DR,7304,10234,15303,0.081,551
2019-11-23T13:31:12,42.805,6.029,CST-1368DR,7304,10234,15303,0.081,551
2019-11-23T13:34:14,42.805,6.029,CST-1368DR,7304,10233,15302,0.081,551
2019-11-23T13:37:15,42.805,6.029,CST-1368DR,7304,10235,15304,0.081,551
2019-11-23T13:40:17,42.805,6.029,CST-1368DR,7304,10234,15303,0.081,551
2019-11-23T13:43:19,42.805,6.029,CST-1368DR,7304,10235,15304,0.081,551
2019-11-23T13:46:20,42.805,6.029,CST-1368DR,7304,10235,15304,0.081,551
2019-11-23T13:49:22,42.805,6.029,CST-1368DR,7304,10234,15303,0.081,551
2019-11-23T13:52:24,42.805,6.029,CST-1368DR,7304,10235,15304,0.081,551
2019-11-23T13:55:25,42.805,6.029,CST-1368DR,7304,10234,15303,0.081,550
2019-11-23T13:58:27,42.805,6.029,CST-1368DR,7304,10233,15302,0.081,551
2019-11-23T14:01:29,42.805,6.029,CST-1368DR,7304,10234,15303,0.081,551
2019-11-23T14:04:30,42.805,6.029,CST-1368DR,7304,10234,15302,0.081,551
2019-11-23T14:07:32,42.805,6.029,CST-1368DR,7304,10234,15303,0.081,551
2019-11-23T14:10:33,42.805,6.029,CST-1368DR,7304,10233,15302,0.081,551
2019-11-23T14:13:35,42.805,6.029,CST-1368DR,7304,10232,15300,0.082,550
2019-11-23T14:16:37,42.805,6.029,CST-1368DR,7304,10234,15303,0.081,551
2019-11-23T14:19:38,42.805,6.029,CST-1368DR,7304,10234,15302,0.081,551
2019-11-23T14:22:40,42.805,6.029,CST-1368DR,7304,10234,15302,0.081,551
2019-11-23T14:25:42,42.805,6.029,CST-1368DR,7304,10231,15298,0.082,551
2019-11-23T14:28:43,42.805,6.029,CST-1368DR,7304,10233,15302,0.081,551
2019-11-23T14:31:45,42.805,6.029,CST-1368DR,7304,10234,15303,0.081,551
2019-11-23T14:34:46,42.805,6.029,CST-1368DR,7304,10233,15301,0.082,550
2019-11-23T14:37:48,42.805,6.029,CST-1368DR,7304,10233,15302,0.081,551
2019-11-23T14:40:50,42.805,6.029,CST-1368DR,7304,10233,15302,0.081,551
2019-11-23T14:43:51,42.805,6.029,CST-1368DR,7304,10233,15301,0.082,551
2019-11-23T14:46:53,42.805,6.029,CST-1368DR,7304,10234,15302,0.081,551
2019-11-23T14:49:55,42.805,6.029,CST-1368DR,7304,10233,15302,0.081,551
2019-11-23T14:52:56,42.805,6.029,CST-1368DR,7304,10233,15302,0.081,551
2019-11-23T14:55:58,42.805,6.029,CST-1368DR,7304,10232,15300,0.082,551
2019-11-23T14:58:59,42.805,6.029,CST-1368DR,7304,10233,15301,0.082,551
2019-11-23T15:02:01,42.805,6.029,CST-1368DR,7304,10233,15302,0.081,551
2019-11-23T15:05:03,42.805,6.029,CST-1368DR,7304,10233,15302,0.081,551
2019-11-23T15:08:04,42.805,6.029,CST-1368DR,7304,10234,15303,0.081,551
2019-11-23T15:11:06,42.805,6.029,CST-1368DR,7304,10233,15302,0.081,551
2019-11-23T15:14:08,42.805,6.029,CST-1368DR,7304,10233,15302,0.081,551
2019-11-23T15:17:09,42.805,6.029,CST-1368DR,7304,10234,15302,0.081,551
2019-11-23T15:20:11,42.805,6.029,CST-1368DR,7304,10233,15301,0.082,551
2019-11-23T15:23:12,42.805,6.029,CST-1368DR,7303,10234,15304,0.081,551
2019-11-23T15:26:14,42.805,6.029,CST-1368DR,7303,10233,15303,0.081,551
2019-11-23T15:29:16,42.805,6.029,CST-1368DR,7303,10232,15301,0.082,551
2019-11-23T15:32:17,42.805,6.029,CST-1368DR,7304,10231,15299,0.082,551
2019-11-23T15:35:19,42.805,6.029,CST-1368DR,7303,10234,15304,0.081,551
2019-11-23T15:38:21,42.805,6.029,CST-1368DR,7303,10233,15304,0.081,551
2019-11-23T15:41:22,42.805,6.029,CST-1368DR,7303,10233,15304,0.081,551
2019-11-23T15:44:24,42.805,6.029,CST-1368DR,7303,10232,15302,0.081,551
2019-11-23T15:47:25,42.805,6.029,CST-1368DR,7303,10234,15304,0.081,551
2019-11-23T15:50:27,42.805,6.029,CST-1368DR,7303,10233,15303,0.081,550
2019-11-23T15:53:29,42.805,6.029,CST-1368DR,7303,10232,15302,0.081,551
2019-11-23T15:56:30,42.805,6.029,CST-1368DR,7303,10233,15303,0.081,551
2019-11-23T15:59:32,42.805,6.029,CST-1368DR,7303,10233,15303,0.081,551
2019-11-23T16:02:34,42.805,6.029,CST-1368DR,7303,10232,15302,0.081,551
2019-11-23T16:05:35,42.805,6.029,CST-1368DR,7303,10234,15304,0.081,551
2019-11-23T16:08:37,42.805,6.029,CST-1368DR,7303,10233,15303,0.081,551
2019-11-23T16:11:39,42.805,6.029,CST-1368DR,7303,10233,15303,0.081,551
2019-11-23T16:14:40,42.805,6.029,CST-1368DR,7303,10232,15302,0.081,551
2019-11-23T16:17:42,42.805,6.029,CST-1368DR,7303,10229,15298,0.082,551
2019-11-23T16:20:43,42.805,6.029,CST-1368DR,7303,10229,15298,0.082,551
2019-11-23T16:23:45,42.805,6.029,CST-1368DR,7303,10231,15301,0.082,550
2019-11-23T16:26:47,42.805,6.029,CST-1368DR,7303,10231,15301,0.082,551
2019-11-23T16:29:48,42.805,6.029,CST-1368DR,7303,10232,15302,0.081,550
2019-11-23T16:32:50,42.805,6.029,CST-1368DR,7303,10232,15302,0.081,550
2019-11-23T16:35:52,42.805,6.029,CST-1368DR,7303,10232,15302,0.081,551
2019-11-23T16:38:53,42.805,6.029,CST-1368DR,7303,10227,15295,0.083,551